GOES 9 1 23581U 95025A 10209.67338285 .00000000 00000-0 10000-3 0 6243 2 23581 006.3021 065.6234 0005914 359.3819 000.7087 00.98796525 55447 GOES 11 1 26352U 00022A 10211.13656890 .00000089 00000-0 10000-3 0 9367 2 26352 000.3833 261.4511 0004884 266.7085 053.7248 01.00280625 37491 NADEZHDA 6 1 26384U 00033A 10211.67320081 -.00000004 00000-0 88023-5 0 2265 2 26384 098.3468 254.0557 0016423 022.8152 337.3767 14.64199942538727 NOAA 16 1 26536U 00055A 10210.86731351 +.00000021 +00000-0 +36349-4 0 09431 2 26536 099.1691 229.3407 0009912 214.1593 145.8925 14.12570536507855 GOES 12 1 26871U 01031A 10209.34657578 -.00000287 00000-0 10000-3 0 6849 2 26871 000.6524 082.2220 0003000 024.7103 263.9781 01.00269157 33080 NOAA 17 1 27453U 02032A 10210.78227151 -.00000028 +00000-0 +58403-5 0 09395 2 27453 098.4282 259.5051 0011982 018.1420 342.0162 14.24176506420763 INSAT 3A 1 27714U 03013A 10211.67400752 .00000000 00000-0 10000-3 0 2205 2 27714 000.0550 275.2972 0002556 247.5296 121.4919 01.00268106 26795 NOAA 18 1 28654U 05018A 10210.76485488 +.00000348 +00000-0 +21702-3 0 04246 2 28654 098.9515 156.9104 0013464 295.4549 064.5234 14.11376088267442 MSG 2 1 28912U 05049B 10210.36447918 .00000000 00000-0 10000-3 0 7123 2 28912 000.5473 078.2097 0002661 103.6561 256.3785 01.00275879943688 METOP-A 1 29499U 06044A 10210.72788960 -.00000173 +00000-0 -58999-4 0 01739 2 29499 098.6698 269.4891 0000959 101.6879 258.4408 14.21503077195911 NAVSTAR 59 (USA 192) 1 29601U 06052A 10210.94843786 -.00000022 00000-0 10000-3 0 9667 2 29601 055.6616 082.2553 0035370 336.4623 023.4550 02.00565804 27108 NAVSTAR 60 (USA 196) 1 32260U 07047A 10211.25222294 -.00000085 00000-0 00000+0 0 7018 2 32260 054.6180 320.6475 0023183 354.9287 005.0763 02.00550978 20505 NAVSTAR 61 (USA 199) 1 32384U 07062A 10211.07579532 .00000022 00000-0 10000-3 0 7208 2 32384 055.0450 143.4868 0032050 285.6971 073.9503 02.00559306 19224 NOAA 19 1 33591U 09005A 10210.76219690 +.00000119 +00000-0 +90273-4 0 06228 2 33591 098.7899 151.9815 0014287 164.8034 195.3587 14.11070043075912 STERKH 1 35636U 09039B 10211.68838416 .00000138 00000-0 10000-3 0 5995 2 35636 082.9556 102.8968 0018791 288.6859 071.2260 13.89455079 52002 STERKH 2 1 35866U 09049B 10211.72754638 .00000178 00000-0 10000-3 0 5409 2 35866 098.7566 265.4795 0002397 234.1025 125.9907 14.22331715 44928